EUTE 16B (HB 4)

导读 | 豆包AI

EUTE 16B(又称HB 4)是由欧洲通信卫星组织(EUTELSAT,缩写EUTE)负责的通信卫星,于1998年2月27日8时发射入轨。该卫星主要承担欧洲、非洲等区域的电视广播、宽带通信与数据传输服务,定点于地球同步轨道,为广播电视运营商、企业专网用户提供稳定的信号连接,服役多年为区域通信保障提供了重要支撑。

Basic Information
目录编号:
25237
目录名称:
EUTE 16B (HB 4)
国际标识:
1998-013A
轨道中心:
EARTH
卫星名称:
EUTE 16B (HB 4)
卫星全名:
--
卫星状态:
在轨 (已飞行10290 天)
发射日期:
1998-02-27 UTC
国别 :
(EUTE)
星等 :
--
Orbit Information
数据来源 国际轨道数据 AOE轨道数据
星历时间 2026-04-30T12:24:39+0800
1天前
查看轨道信息
2026-05-01T06:00:00+0800
14小时前
查看轨道信息
半长轴 42733.178km 42733.149km
偏心率 0.0006969 0.000693
轨道倾角 10.963° 10.965°
近地点辐角 320.722° 320.965°
升交点赤经 46.712° 46.705°
平近点角 248.528° 147.590°
近地点 36325.26km 36325.397km
远地点 36384.822km 36384.627km
周期 1465.236分钟 1465.234分钟
每日圈数 0.982777 0.982778
Detailed Information
使用方式:
暂无
2D Orbit Map
3D Orbit Map
Orbit Altitude Analysis Chart
Orbit Inclination Analysis Chart
Orbit Comprehensive Analysis Chart
View Comprehensive Chart